This is the latest recevied weather packets stored in our database for station/object KD8JAM. If no packets are shown the sender has not sent any weather packets the latest 10 day(s).
| Time | Temp. | Humidity | Pressure | Rain* | Wind** | Luminosity | Snow |
|---|---|---|---|---|---|---|---|
| 1777447153 | 0° C | 99% | 1016.7 hPa | 0 mm | - | 0 W/m² | - |
| 1777446852 | 0° C | 99% | 1016.7 hPa | 0 mm | - | 0 W/m² | - |
| 1777446548 | 0.56° C | 99% | 1016.6 hPa | 0 mm | - | 0 W/m² | - |
| 1777446243 | 0.56° C | 99% | 1016.7 hPa | 0 mm | - | 0 W/m² | - |
| 1777445936 | 1.11° C | 99% | 1016.7 hPa | 0 mm | - | 0 W/m² | - |
| 1777445630 | 1.11° C | 99% | 1016.1 hPa | 0 mm | - | 0 W/m² | - |
| 1777445327 | 1.11° C | 99% | 1016.1 hPa | 0 mm | - | 0 W/m² | - |
| 1777445023 | 1.11° C | 99% | 1016.2 hPa | 0 mm | - | 0 W/m² | - |
| 1777444719 | 1.11° C | 99% | 1016.2 hPa | 0 mm | - | 0 W/m² | - |
| 1777444416 | 1.11° C | 99% | 1016.6 hPa | 0 mm | - | 0 W/m² | - |
| 1777444113 | 1.11° C | 99% | 1016.8 hPa | 0 mm | - | 0 W/m² | - |
| 1777443809 | 1.11° C | 99% | 1016.3 hPa | 0 mm | - | 0 W/m² | - |
| 1777443504 | 0.56° C | 99% | 1016.8 hPa | 0 mm | - | 0 W/m² | - |
| 1777443201 | 0° C | 99% | 1016.8 hPa | 0 mm | - | 0 W/m² | - |
| 1777442898 | 0.56° C | 99% | 1016.8 hPa | 0 mm | - | 0 W/m² | - |
| 1777442594 | 0.56° C | 99% | 1017.1 hPa | 0 mm | - | 0 W/m² | - |
| 1777442289 | 0.56° C | 99% | 1016.6 hPa | 0 mm | - | 0 W/m² | - |
| 1777441987 | 0.56° C | 99% | 1016.8 hPa | 0 mm | - | 0 W/m² | - |
| 1777441682 | 0.56° C | 99% | 1016.7 hPa | 0 mm | - | 0 W/m² | - |
| 1777441377 | 1.11° C | 99% | 1017 hPa | 0 mm | - | 0 W/m² | - |
| 1777441072 | 1.11° C | 99% | 1016.9 hPa | 0 mm | - | 0 W/m² | - |
| 1777440769 | 1.67° C | 99% | 1016.9 hPa | 0 mm | - | 0 W/m² | - |
| 1777440464 | 1.67° C | 99% | 1017 hPa | 0 mm | - | 0 W/m² | - |
| 1777440160 | 1.67° C | 99% | 1016.6 hPa | 0 mm | - | 0 W/m² | - |
| 1777439856 | 2.22° C | 99% | 1016.8 hPa | 0 mm | - | 0 W/m² | - |
* Rain latest hour (hover to see other rain measurements)
** Current wind speed in m/s (hover to see current wind gust speed)